Location: Quaker Farms
(41.4276°N, 73.1557°W)
Time: 00:02:04
(UTC+00:00)

Vanguard 1 - Pass Details

Date: 13 June 2021
Orbit: 651 x 3832 km, 34.2° (Epoch: 26 July)

Event Time Altitude Azimuth Distance (km) Brightness Sun altitude
Rises 06:55:43 0° 267° (W) 6,914 14.1 -19.3°
Reaches altitude 10° 07:01:05 10° 264° (W) 5,416 13.5 -18.8°
Maximum altitude 07:14:48 57° 192° (SSW) 1,905 11.1 -17.4°
Drops below altitude 10° 07:22:11 10° 115° (ESE) 3,023 12.7 -16.7°
Sets 07:24:22 0° 111° (ESE) 3,735 13.3 -16.4°
